Tracking 31027 objects as of 19-Jul-2025
HD Live streaming from Space Station
objects crossing your sky now

ITALSAT 1

Track ITALSAT 1 now!
ITALSAT 1 is classified as:


NORAD ID: 21055
Int'l Code: 1991-003A
Perigee: 35,827.7 km
Apogee: 35,935.1 km
Inclination: 14.6 °
Period: 1,440.6 minutes
Semi major axis: 42252 km
RCS: 3.4358 m2 (large)
Launch date: January 15, 1991
Source: Italy (IT)
Launch site: FRENCH GUIANA (FRGUI)
Your satellite tracking list
FENGYUN 1C DEB
Track 1 satellite(s)




NASA's NSSDC Master Catalog

Two Line Element Set (TLE):
1 21055U 91003A   25199.53022475  .00000074  00000-0  00000-0 0  9991
2 21055  14.6295 354.0362 0012712  58.0981 301.3068  0.99959785113747
Source of the keplerian elements: AFSPC